Location: Unspecified
(30.1230°N, 0.0000°E)
Time: 18:32:10
(UTC+00:00)

Cosmos 1408 Rocket - Visible Passes

Search period start: 04 April 2026 00:00
Search period end: 14 April 2026 00:00
Orbit: 595 x 622 km, 82.6° (Epoch: 29 March)

Date Brightness Start Highest point End Pass type
(mag) Time Alt. Az. Time Alt. Az. Time Alt. Az.
4 Apr 5.1 19:36:29 10° SSW 19:40:36 39° W 19:44:45 10° NNW visible
5 Apr 6.2 19:51:15 10° SW 19:54:38 22° WNW 19:58:03 10° NNW visible
6 Apr 7.0 20:07:05 10° W 20:08:44 12° WNW 20:10:24 10° NW visible
7 Apr 3.5 18:40:27 10° S 18:44:51 78° E 18:49:15 10° N visible
8 Apr 7.6 04:56:55 10° ENE 04:57:44 10° ENE 04:58:34 10° E visible
8 Apr 4.5 18:54:28 10° SSW 18:58:46 54° W 19:03:07 10° N visible
9 Apr 6.8 05:08:43 10° NNE 05:11:51 19° ENE 05:14:57 10° SE visible
9 Apr 5.9 19:08:55 10° SW 19:12:46 29° W 19:16:37 10° NNW visible
10 Apr 6.8 19:24:03 10° WSW 19:26:49 16° WNW 19:29:36 10° NW visible
13 Apr 6.9 04:27:36 10° NE 04:29:55 14° ENE 04:32:13 10° ESE visible
